User: anonymous   Login
Location: Dampvalley
(47.9094°N, 6.1967°E)
Time: 02:51:28
(UTC+00:00)
Language:

Meteor 2-2 Rocket - Orbit

View from above orbital plane
View from above orbital plane
View from above satellite
View from above satellite

Ground track
Ground track

The orbit data is extracted from the following two-line orbital elements,

1 09662U 77002B   21136.51741984 -.00000044  00000-0 -37513-4 0  9994
2 09662  81.2727 148.0377 0052971  45.1043 315.4404 14.00952397266491
Epoch (UTC): 16 May 2021 12:25:05
Eccentricity: 0.0052971
inclination: 81.2727°
perigee height: 852 km
apogee height: 929 km
right ascension of ascending node: 148.0377°
argument of perigee: 45.1043°
revolutions per day: 14.00952397
mean anomaly at epoch: 315.4404°
orbit number at epoch: 26649

The dashed part of the orbit path shows where the satellite is in the earth's shadow,  

DLR